Home   Weather   Jelgava   Past weeks

Flag for Latvia Past Weather in Jelgava, Latvia — Yesterday and Last 2 Weeks

Now
46 °F

Scattered clouds.


Feels Like: 44 °F
Forecast: 35 / 43 °F
Wind: 5 mph from North

Location: Riga Airport

Current Time: Apr 24, 2017 at 6:22:24 pm

Latest Report: Apr 24, 2017 at 5:50 pm


Visibility: N/A

Pressure: 29.77 "Hg

Humidity: 43%

Dew Point: 25 °F

Location of JelgavaLocation

Past Weather in Jelgava — Graph

°F

Jelgava Temperature Yesterday

Maximum temperature yesterday: 46 °F (at 11:50 am)
Minimum temperature yesterday: 28 °F (at 11:20 pm)
Average temperature yesterday: 40 °F

High & Low Weather Summary for the Past Weeks

 TemperatureHumidityPressure
High66 °F (Apr 10, 3:50 pm)100% (Apr 10, 4:20 am)30.51 "Hg (Apr 10, 4:20 am)
Low19 °F (Apr 20, 5:20 am)31% (Apr 20, 1:50 pm)29.27 "Hg (Apr 22, 4:50 am)
Average37 °F76%29.83 "Hg
* Reported Apr 9 4:20 pm — Apr 24 4:50 pm, Jelgava, Weather by CustomWeather, © 2017

Note: Actual official high and low records may vary slightly from our data, if they occured in-between our weather recording intervals... More about our weather records

Advertising

Jelgava Weather History for the Previous 24 Hours

Scroll right to see more
 ConditionsComfort  
Time TempWeatherWind HumidityBarometerVisibility
4:50 pm
Mon, Apr 24
46 °FScattered clouds.5 mph50%29.77 "HgN/A
4:20 pm48 °FScattered clouds.9 mph34%29.77 "HgN/A
3:50 pm48 °FScattered clouds.3 mph34%29.77 "HgN/A
3:20 pm50 °FScattered clouds.6 mph35%29.77 "HgN/A
2:50 pm46 °FScattered clouds.3 mph37%29.80 "HgN/A
2:20 pm46 °FScattered clouds.6 mph37%29.80 "HgN/A
1:50 pm46 °FScattered clouds.7 mph37%29.80 "HgN/A
1:20 pm48 °FScattered clouds.9 mph40%29.80 "HgN/A
12:50 pm48 °FScattered clouds.12 mph37%29.80 "HgN/A
12:20 pm45 °FScattered clouds.8 mph46%29.80 "HgN/A
11:50 am46 °FScattered clouds.12 mph46%29.80 "HgN/A
11:20 am46 °FScattered clouds.8 mph50%29.80 "HgN/A
10:50 am45 °FPassing clouds.10 mph57%29.80 "HgN/A
10:20 am45 °FSunny.9 mph61%29.80 "Hg10 mi
9:50 am41 °FPassing clouds.7 mph76%29.80 "HgN/A
9:20 am39 °FPassing clouds.2 mph81%29.80 "HgN/A
8:50 am36 °FPassing clouds.6 mph87%29.80 "HgN/A
8:20 am36 °FPassing clouds.1 mph87%29.80 "HgN/A
7:50 am34 °FPartly sunny.3 mph87%29.80 "HgN/A
7:20 am32 °FPassing clouds.3 mph93%29.80 "HgN/A
6:50 am32 °FPassing clouds.5 mph93%29.80 "HgN/A
6:20 am32 °FPassing clouds.5 mph87%29.80 "HgN/A
5:50 am32 °FClear.6 mph87%29.80 "Hg10 mi
5:20 am30 °FClear.5 mph93%29.80 "Hg10 mi
4:50 am28 °FClear.5 mph93%29.80 "Hg10 mi
4:20 am27 °FClear.No wind100%29.80 "Hg10 mi
3:50 am27 °FClear.2 mph100%29.80 "Hg10 mi
3:20 am28 °FClear.1 mph93%29.80 "Hg10 mi
2:50 am27 °FClear.2 mph100%29.80 "Hg10 mi
2:20 am27 °FClear.3 mph100%29.80 "Hg10 mi
1:50 am27 °FClear.2 mph93%29.80 "Hg10 mi
1:20 am27 °FClear.3 mph100%29.80 "Hg10 mi
12:50 am25 °FClear.3 mph100%29.83 "Hg10 mi
12:20 am27 °FClear.3 mph100%29.83 "Hg10 mi
11:50 pm
Sun, Apr 23
28 °FClear.3 mph93%29.80 "Hg10 mi
11:20 pm28 °FClear.3 mph93%29.80 "Hg10 mi
10:50 pm30 °FClear.3 mph93%29.80 "Hg10 mi
10:20 pm32 °FClear.3 mph87%29.80 "Hg10 mi
9:50 pm36 °FClear.1 mph75%29.80 "Hg10 mi
9:20 pm37 °FPassing clouds.5 mph70%29.80 "HgN/A
8:50 pm37 °FPassing clouds.7 mph70%29.80 "HgN/A
8:20 pm39 °FPassing clouds.9 mph61%29.77 "HgN/A
7:50 pm41 °FSunny.13 mph53%29.77 "Hg10 mi
7:20 pm41 °FPassing clouds.12 mph57%29.77 "HgN/A
6:50 pm41 °FPassing clouds.15 mph61%29.77 "HgN/A
6:20 pm41 °FSunny.15 mph61%29.77 "Hg10 mi
Weather by CustomWeather, © 2017

See weather overviewHow to use our weather pages